GW1998 Weather Reports


time (UTC)temp
F
wind
direction
speed
knots
gust
knots
rain 1hr
in
rain 24hr
in
rain mn
in
humidity
%
barometer
mb
20260509212123 92 67 0.9 3.5 0.00 0.00 0.00 34 1010.0
20260509211122 95 88 4.3 7.0 0.00 0.00 0.00 31 1010.2
20260509210124 93 76 0.9 1.7 0.00 0.00 0.00 31 1010.4
20260509205222 94 24 3.5 5.2 0.00 0.00 0.00 28 1010.5
20260509203225 91 19 2.6 3.5 0.00 0.00 0.00 32 1010.8
20260509202322 92 91 1.7 3.5 0.00 0.00 0.00 28 1010.9
20260509200323 90 16 3.5 3.5 0.00 0.00 0.00 32 1011.2
20260509195323 91 15 2.6 5.2 0.00 0.00 0.00 33 1011.3
20260509193323 89 56 3.5 6.1 0.00 0.00 0.00 40 1011.5
20260509190424 88 89 2.6 4.3 0.00 0.00 0.00 43 1011.7
20260509185522 87 51 2.6 3.5 0.00 0.00 0.00 45 1011.7
20260509184523 86 4 0.9 5.2 0.00 0.00 0.00 46 1011.7
20260509182625 86 357 3.5 4.3 0.00 0.00 0.00 47 1012.0
20260509181624 85 64 1.7 4.3 0.00 0.00 0.00 47 1012.1
20260509175723 86 51 5.2 7.0 0.00 0.00 0.00 46 1012.2
20260509174723 87 32 4.3 5.2 0.00 0.00 0.00 44 1012.3
20260509173724 86 64 0.9 2.6 0.00 0.00 0.00 46 1012.3
20260509172822 85 287 4.3 6.1 0.00 0.00 0.00 47 1012.6
20260509171823 84 304 2.6 3.5 0.00 0.00 0.00 48 1012.7
20260509170921 84 294 3.5 5.2 0.00 0.00 0.00 48 1012.6
20260509165925 83 345 3.5 6.1 0.00 0.00 0.00 49 1012.6
20260509165023 84 335 2.6 5.2 0.00 0.00 0.00 49 1012.7
20260509163024 83 322 4.3 8.7 0.00 0.00 0.00 51 1012.9
20260509161123 82 42 2.6 3.5 0.00 0.00 0.00 56 1013.0
20260509160222 81 21 3.5 5.2 0.00 0.00 0.00 57 1013.0
20260509155223 80 26 4.3 7.0 0.00 0.00 0.00 58 1012.9
20260509154222 80 49 5.2 7.0 0.00 0.00 0.00 58 1012.9
20260509153226 78 22 4.3 6.1 0.00 0.00 0.00 59 1012.8
20260509152223 79 17 5.2 7.0 0.00 0.00 0.00 58 1012.7
20260509151222 78 7 4.3 7.0 0.00 0.00 0.00 59 1012.8
20260509145222 78 334 3.5 7.0 0.00 0.00 0.00 62 1012.8
20260509143322 75 28 4.3 5.2 0.00 0.00 0.00 66 1012.8
20260509142324 75 335 2.6 6.1 0.00 0.00 0.00 69 1013.0
20260509141327 74 344 2.6 3.5 0.00 0.00 0.00 72 1013.1
20260509135421 72 299 2.6 5.2 0.00 0.00 0.00 75 1013.2
20260509133424 71 309 4.3 6.1 0.00 0.00 0.00 74 1013.0
20260509132422 71 313 3.5 7.0 0.00 0.00 0.00 74 1012.9
20260509131423 70 315 4.3 7.8 0.00 0.00 0.00 74 1012.9
20260509130424 69 12 1.7 3.5 0.00 0.00 0.00 75 1013.0
20260509124524 69 324 2.6 5.2 0.00 0.00 0.00 74 1013.0
20260509123524 69 318 3.5 5.2 0.00 0.00 0.00 74 1012.9
20260509122623 68 322 1.7 4.3 0.00 0.00 0.00 75 1012.7
20260509121623 68 350 0.9 2.6 0.00 0.00 0.00 76 1012.7
20260509120623 68 12 2.6 5.2 0.00 0.00 0.00 77 1012.5
20260509114722 67 343 3.5 7.0 0.00 0.01 0.00 77 1012.5
20260509113723 67 1 1.7 2.6 0.00 0.01 0.00 76 1012.2
20260509112723 68 17 0.9 1.7 0.00 0.01 0.00 76 1011.9
20260509111723 68 90 0.9 0.9 0.00 0.01 0.00 75 1011.7
20260509110725 68 320 0.0 0.9 0.00 0.01 0.00 75 1011.6
20260509105822 68 281 1.7 3.5 0.00 0.01 0.00 74 1011.5
20260509103824 69 269 4.3 8.7 0.00 0.01 0.00 75 1011.7
20260509102824 69 271 3.5 4.3 0.00 0.01 0.00 75 1011.7
20260509101823 69 299 0.9 3.5 0.00 0.01 0.00 76 1011.6
20260509101725 69 254 0.9 1.7 0.00 0.01 0.00 76 1011.6
20260509100822 69 24 1.7 3.5 0.00 0.01 0.00 77 1011.6
20260509095823 69 358 3.5 5.2 0.00 0.01 0.00 77 1011.6
20260509094823 69 356 2.6 4.3 0.00 0.01 0.00 78 1011.6
20260509093922 70 302 6.1 9.6 0.00 0.01 0.00 81 1011.4
20260509092923 69 298 5.2 7.8 0.00 0.01 0.00 84 1009.6
20260509091923 69 183 5.2 8.7 0.00 0.01 0.00 84 1008.5
20260509090922 69 173 7.0 10.4 0.00 0.01 0.00 84 1008.5
20260509090021 69 198 7.8 12.2 0.00 0.01 0.00 84 1008.9
20260509085022 69 183 9.6 13.9 0.00 0.01 0.00 84 1009.0
20260509084023 69 182 7.8 11.3 0.00 0.01 0.00 83 1009.1
20260509083023 69 195 7.8 12.2 0.00 0.01 0.00 82 1009.4
20260509082121 68 190 6.1 11.3 0.00 0.01 0.00 83 1009.7
20260509081122 69 194 6.1 11.3 0.00 0.01 0.00 84 1010.1
20260509080122 69 188 7.0 9.6 0.00 0.01 0.00 83 1010.6
20260509075123 69 154 2.6 4.3 0.00 0.01 0.00 82 1010.8
20260509074124 69 152 3.5 5.2 0.00 0.01 0.00 82 1011.0
20260509073122 69 162 3.5 5.2 0.00 0.01 0.00 83 1011.9
20260509071124 70 227 4.3 6.1 0.00 0.01 0.00 83 1012.9
20260509070222 70 235 2.6 4.3 0.00 0.01 0.00 83 1013.5
20260509065222 70 281 5.2 9.6 0.00 0.01 0.00 84 1014.3
20260509064222 70 275 4.3 6.1 0.00 0.01 0.00 84 1014.0
20260509063222 69 285 2.6 5.2 0.00 0.01 0.00 85 1013.7
20260509061323 69 258 1.7 3.5 0.00 0.01 0.00 85 1013.8
20260509060322 69 241 0.9 2.6 0.00 0.01 0.00 85 1013.5
20260509055323 69 342 0.0 0.9 0.00 0.01 0.00 85 1013.5
20260509054322 69 43 1.7 2.6 0.00 0.01 0.00 84 1013.7
20260509052422 70 359 2.6 3.5 0.00 0.01 0.00 84 1013.4
20260509051423 70 90 0.0 0.9 0.00 0.01 0.00 84 1012.9
20260509045429 70 152 2.6 4.3 0.00 0.01 0.01 83 1012.4
20260509043430 71 128 0.9 1.7 0.00 0.01 0.01 81 1012.6
20260509042431 71 130 2.6 3.5 0.00 0.01 0.01 81 1012.6
20260509041431 71 138 2.6 3.5 0.00 0.01 0.01 81 1012.5
20260509040431 72 90 0.9 1.7 0.00 0.01 0.01 80 1012.7
20260509035429 72 90 1.7 2.6 0.00 0.01 0.01 80 1012.4
20260509034430 72 153 3.5 6.1 0.00 0.01 0.01 80 1012.2
20260509033431 72 166 4.3 7.0 0.00 0.01 0.01 80 1011.9
20260509032529 72 155 6.1 9.6 0.00 0.01 0.01 80 1011.2
20260509031530 72 183 3.5 5.2 0.00 0.01 0.01 79 1011.3
20260509030530 72 154 3.5 6.1 0.00 0.01 0.01 79 1011.3
20260509024630 72 144 2.6 6.1 0.00 0.01 0.01 79 1010.6
20260509023631 73 155 5.2 7.8 0.00 0.01 0.01 78 1010.2
20260509022631 73 164 3.5 7.0 0.00 0.01 0.01 77 1010.5
20260509020628 73 145 4.3 6.1 0.00 0.01 0.01 76 1010.6
20260509015728 73 137 3.5 4.3 0.00 0.01 0.01 76 1010.8
20260509014730 73 143 3.5 4.3 0.00 0.01 0.01 76 1010.9
20260509014628 73 135 2.6 3.5 0.00 0.01 0.01 76 1010.8
20260509013630 73 135 1.7 2.6 0.00 0.01 0.01 76 1010.9
20260509012648 73 135 1.7 3.5 0.00 0.01 0.01 75 1010.8
20260509011729 73 128 0.9 1.7 0.00 0.01 0.01 75 1010.7
20260509010730 73 151 0.9 2.6 0.00 0.01 0.01 75 1010.4
20260509005730 73 145 2.6 5.2 0.00 0.01 0.01 74 1010.2
20260509004828 74 106 2.6 5.2 0.00 0.01 0.01 74 1010.2
20260509003829 73 155 4.3 6.1 0.00 0.01 0.01 74 1010.0
20260509001831 74 193 3.5 5.2 0.00 0.01 0.01 74 1010.2
20260509000828 74 194 1.7 3.5 0.00 0.01 0.01 73 1010.3
20260508235828 74 187 3.5 4.3 0.00 0.01 0.01 72 1010.6
20260508234829 74 204 5.2 6.1 0.00 0.01 0.01 72 1010.6
20260508233828 74 221 2.6 4.3 0.00 0.01 0.01 72 1010.6
20260508232829 74 165 2.6 3.5 0.00 0.01 0.01 72 1010.6
20260508231829 74 170 3.5 4.3 0.00 0.01 0.01 71 1010.6
20260508230831 75 150 4.3 6.1 0.00 0.01 0.01 70 1010.7
20260508225842 75 193 4.3 7.0 0.00 0.01 0.01 69 1010.6
20260508224929 75 193 5.2 7.8 0.00 0.01 0.01 69 1010.5
20260508223929 76 139 4.3 8.7 0.00 0.01 0.01 67 1010.4
20260508222930 75 175 7.0 10.4 0.00 0.01 0.01 68 1010.3
20260508221929 74 164 6.1 9.6 0.00 0.01 0.01 69 1010.4
20260508220028 75 151 4.3 7.8 0.00 0.01 0.01 66 1010.7
20260508215030 75 175 6.1 9.6 0.00 0.01 0.01 66 1010.8
20260508214030 74 123 4.3 5.2 0.00 0.01 0.01 66 1011.0